User: anonymous   Login
Location: Unspecified
(0.0000°N, 0.0000°E)
Time: 00:11:04
(UTC+00:00)
Language:

NOAA 15 - Orbit

View from above orbital plane
View from above orbital plane
View from above satellite
View from above satellite

Ground track
Ground track

The orbit data is extracted from the following two-line orbital elements,

1 25338U 98030A   21025.51067815  .00000040  00000-0  35299-4 0  9990
2 25338  98.6979  55.2008 0009982 342.4606  17.6228 14.26010070180628
Epoch (UTC): 25 January 2021 12:15:22
Eccentricity: 0.0009982
inclination: 98.6979°
perigee height: 798 km
apogee height: 812 km
right ascension of ascending node: 55.2008°
argument of perigee: 342.4606°
revolutions per day: 14.26010070
mean anomaly at epoch: 17.6228°
orbit number at epoch: 18062

The dashed part of the orbit path shows where the satellite is in the earth's shadow,  

DLR